{"data":{"norad_id":50828,"epoch":"2026-09-20T00:20:48.213888Z","epoch_age_seconds":90188,"freshness":"FRESH","line1":"1 50828U 22001AB  26263.01444692  .00000521  00000+0  28560-4 0  9999","line2":"2 50828  53.1618   6.0647 0000975  93.8353 266.2760 15.31697980259738","mean_motion":15.3169798,"eccentricity":9.75e-5,"inclination_deg":53.1618,"raan_deg":6.0647,"arg_perigee_deg":93.8353,"mean_anomaly_deg":266.276,"bstar":2.856e-5,"rev_number":25973,"period_min":94.013311945479,"perigee_km":470.07825065302,"apogee_km":471.41378284129,"semimajor_km":6848.8830167472,"source":"CELESTRAK","updated_at":"2026-09-20T09:00:39.579295Z"}}